This demonstration page uses our WeatherBlox Daily Observations layout. Learn more.

Left ArrowRight Arrow

36.17497, -115.13722

Hourly Observations for October 17, 2019

Temp ( °F °C ) Dew Point ( °F °C ) Humidity (%) Winds ( mph kmh ) Pressure ( in mb ) Visibility ( mi km ) Precip ( " mm )
12:53 am 00:53 Clear 67 19.4 30 -1.1 25 25 N N/A 29.8 1009 10 16.0934 N/A
1:53 am 01:53 Clear 66 18.9 31 -0.6 27 27 NNW 3 6 29.79 1009 8 12.87472 N/A
2:53 am 02:53 Clear 64 17.8 32 undefined 30 30 N 6 9 29.77 1008 8 12.87472 N/A
3:53 am 03:53 Clear 62 16.7 32 undefined 32 32 WNW 3 6 29.75 1008 10 16.0934 N/A
4:53 am 04:53 Clear 61 16.1 33 0.6 35 35 N N/A 29.75 1007 10 16.0934 N/A
5:53 am 05:53 Clear 61 16.1 33 0.6 35 35 N N/A 29.74 1007 10 16.0934 N/A
6:53 am 06:53 Sunny 62 16.7 32 undefined 32 32 NW 6 9 29.73 1007 10 16.0934 N/A
7:53 am 07:53 Sunny 65 18.3 32 undefined 29 29 N N/A 29.73 1007 10 16.0934 N/A
8:53 am 08:53 Sunny 69 20.6 32 undefined 25 25 E 6 9 29.72 1007 10 16.0934 N/A
9:53 am 09:53 Sunny 78 25.6 34 1.1 20 20 ESE 9 15 29.71 1006 10 16.0934 N/A
10:53 am 10:53 Sunny 80 26.7 34 1.1 19 19 S 12 19 29.69 1005 10 16.0934 N/A
11:53 am 11:53 Sunny 81 27.2 32 undefined 17 17 S 17 28 29.67 1005 10 16.0934 N/A
12:53 pm 12:53 Sunny 82 27.8 30 -1.1 15 15 SSW 21 33 29.63 1003 10 16.0934 N/A
1:53 pm 13:53 Sunny 84 28.9 27 -2.8 12 12 S 18 30 29.59 1002 10 16.0934 N/A
2:53 pm 14:53 Sunny 85 29.4 28 -2.2 13 13 SSW 21 33 29.56 1001 10 16.0934 N/A
3:53 pm 15:53 Sunny 83 28.3 26 -3.3 12 12 SSW 12 19 29.56 1001 10 16.0934 N/A
4:53 pm 16:53 Sunny 82 27.8 29 -1.7 14 14 SSW 25 41 29.52 1000 10 16.0934 N/A
5:53 pm 17:53 Sunny 80 26.7 27 -2.8 14 14 SSW 16 26 29.52 1000 10 16.0934 N/A
6:53 pm 18:53 Clear 76 24.4 28 -2.2 17 17 SSW 15 24 29.54 1000 10 16.0934 N/A
7:53 pm 19:53 Clear 75 23.9 27 -2.8 17 17 SSW 10 17 29.55 1001 10 16.0934 N/A
8:53 pm 20:53 Clear 74 23.3 25 -3.9 16 16 SSW 9 15 29.56 1001 10 16.0934 N/A
9:53 pm 21:53 Clear 73 22.8 26 -3.3 17 17 NNW 12 19 29.6 1002 10 16.0934 N/A
10:53 pm 22:53 Clear 74 23.3 26 -3.3 17 17 NW 32 52 29.61 1003 10 16.0934 N/A
11:53 pm 23:53 Clear 72 22.2 31 -0.6 22 22 NW 22 35 29.66 1005 10 16.0934 N/A

Powered by AerisWeather